Weather History for 03772 - November, 2012

Change the Weather History Date:

Wednesday, November 14, 2012

  Actual Average Record
Temperature  
Mean Temperature 50 °F -  
Max Temperature 57 °F 48 °F - ()
Min Temperature 42 °F 38 °F - ()
Degree Days  
Heating Degree Days 15    
Moisture  
Dew Point 46 °F    
Average Humidity 84    
Maximum Humidity 94    
Minimum Humidity 49    
Precipitation  
Precipitation 0.00 in - - ()
Sea Level Pressure  
Sea Level Pressure 30.31 in    
Wind  
Wind Speed 5 mph ()    
Max Wind Speed 10 mph    
Max Gust Speed -    
Visibility 6.1 miles    
Events      
T = Trace of Precipitation, MM = Missing Value Source: Averaged Metar Reports

Daily Weather History Graph

Daily Weather History Graph

Search for Another Location

Airport or City:

Trip Planner

Search our weather history database for the weather conditions in past years. The results will help you decide how hot, cold, wet, or windy it might be!

Date:

Astronomy

Nov. 14, 2012 Rise Set
Actual Time 7:18 AM GMT 4:13 PM GMT
Civil Twilight 6:41 AM GMT 4:50 PM GMT
Nautical Twilight 6:01 AM GMT 5:30 PM GMT
Astronomical Twilight 5:21 AM GMT 6:10 PM GMT
Moon 7:56 AM GMT (11/14) 4:40 PM GMT (11/14)
Length of Visible Light 10h 08m
Length of Day
8h 54m
New Moon, 1% of the Moon is Illuminated
Nov 14
New Moon
Nov 20
First Quarter
Nov 28
Full
Dec 6
Last Quarter
Dec 13
New

Hourly Weather History & Observations

Time (GMT) Temp. Windchill Dew Point Humidity Pressure Visibility Wind Dir Wind Speed Gust Speed Precip Events Conditions
12:20 AM 53.6 °F - 50.0 °F 88% 30.33 in 6.2 mi South 3.5 mph - N/A   Mostly Cloudy
12:50 AM 51.8 °F - 50.0 °F 94% 30.33 in 6.2 mi SSE 3.5 mph - N/A   Mostly Cloudy
1:20 AM 51.8 °F - 50.0 °F 94% 30.33 in 6.2 mi SE 5.8 mph - N/A   Mostly Cloudy
1:50 AM 51.8 °F - 50.0 °F 94% 30.33 in 6.2 mi SSE 5.8 mph - N/A   Overcast
2:20 AM 51.8 °F - 50.0 °F 94% 30.33 in 5.0 mi SE 5.8 mph - N/A   Overcast
2:50 AM 52 °F - 50 °F 92% 30.34 in 5 mi SE 6.9 mph - -   Light Haze
2:50 AM 51.8 °F - 50.0 °F 94% 30.33 in 4.3 mi SE 6.9 mph - N/A   Overcast
3:20 AM 51.8 °F - 50.0 °F 94% 30.33 in 3.7 mi SSE 6.9 mph - N/A   Overcast
3:50 AM 51.8 °F - 50.0 °F 94% 30.33 in 4.3 mi SSE 6.9 mph - N/A   Mostly Cloudy
4:20 AM 51.8 °F - 50.0 °F 94% 30.33 in 3.7 mi SSE 5.8 mph - N/A   Mostly Cloudy
4:50 AM 51.8 °F - 50.0 °F 94% 30.33 in 4.3 mi SSE 6.9 mph - N/A   Mostly Cloudy
5:20 AM 51.8 °F - 50.0 °F 94% 30.33 in 5.0 mi SSE 5.8 mph - N/A   Overcast
5:50 AM 50 °F - 48 °F 89% 30.33 in 7 mi SE 5.8 mph - -  
5:50 AM 51.8 °F - 48.2 °F 88% 30.33 in 6.2 mi SSE 5.8 mph - N/A   Scattered Clouds
6:20 AM 50.0 °F - 48.2 °F 94% 30.33 in 6.2 mi SE 10.4 mph - N/A   Partly Cloudy
6:50 AM 50.0 °F - 48.2 °F 94% 30.33 in 6.2 mi ESE 6.9 mph - N/A   Partly Cloudy
7:20 AM 50.0 °F - 48.2 °F 94% 30.33 in 5.0 mi SE 5.8 mph - N/A   Mostly Cloudy
7:50 AM 51.8 °F - 48.2 °F 88% 30.33 in 6.2 mi SE 6.9 mph - N/A   Mostly Cloudy
8:20 AM 51.8 °F - 48.2 °F 88% 30.33 in 6.2 mi ESE 4.6 mph - N/A   Mostly Cloudy
8:50 AM 51 °F - 48 °F 85% 30.35 in 11 mi SE 5.8 mph - -   Overcast
8:50 AM 51.8 °F - 48.2 °F 88% 30.33 in 6.2 mi SE 6.9 mph - N/A   Overcast
9:20 AM 51.8 °F - 48.2 °F 88% 30.33 in 6.2 mi SE 8.1 mph - N/A   Mostly Cloudy
9:50 AM 51.8 °F - 48.2 °F 88% 30.33 in 6.2 mi ESE 6.9 mph - N/A   Mostly Cloudy
10:20 AM 51.8 °F - 48.2 °F 88% 30.33 in 6.2 mi SE 5.8 mph - N/A   Mostly Cloudy
10:50 AM 51.8 °F - 46.4 °F 82% 30.33 in 6.2 mi SSE 5.8 mph - N/A   Scattered Clouds
11:20 AM 53.6 °F - 46.4 °F 77% 30.33 in 6.2 mi ESE 5.8 mph - N/A   Partly Cloudy
11:50 AM 55 °F - 44 °F 58% 30.32 in 17 mi SSE 3.5 mph - -  
11:50 AM 55.4 °F - 44.6 °F 67% 30.30 in 6.2 mi Variable 3.5 mph - N/A   Partly Cloudy
12:20 PM 57.2 °F - 44.6 °F 63% 30.30 in 6.2 mi Variable 3.5 mph - N/A   Partly Cloudy
12:50 PM 55.4 °F - 42.8 °F 63% 30.30 in 6.2 mi East 4.6 mph - N/A   Partly Cloudy
1:20 PM 55.4 °F - 44.6 °F 67% 30.30 in - East 5.8 mph - N/A   Clear
1:50 PM 57.2 °F - 42.8 °F 59% 30.27 in - East 6.9 mph - N/A   Clear
2:20 PM 55.4 °F - 42.8 °F 63% 30.27 in - East 6.9 mph - N/A   Clear
2:50 PM 56 °F - 42 °F 49% 30.27 in 19 mi ENE 5.8 mph - -  
2:50 PM 55.4 °F - 41.0 °F 58% 30.27 in - East 5.8 mph - N/A   Clear
3:20 PM 53.6 °F - 41.0 °F 62% 30.27 in - East 6.9 mph - N/A   Clear
3:50 PM 53.6 °F - 42.8 °F 67% 30.27 in - East 5.8 mph - N/A   Clear
4:20 PM 51.8 °F - 42.8 °F 71% 30.27 in - East 4.6 mph - N/A   Clear
4:50 PM 50.0 °F - 44.6 °F 82% 30.27 in - East 6.9 mph - N/A   Clear
5:20 PM 48.2 °F - 44.6 °F 87% 30.27 in - East 5.8 mph - N/A   Clear
5:50 PM 48 °F - 44 °F 80% 30.28 in 11 mi East 5.8 mph - -  
5:50 PM 48.2 °F - 42.8 °F 82% 30.27 in - East 5.8 mph - N/A   Clear
6:20 PM 46.4 °F 43.5 °F 42.8 °F 87% 30.27 in - East 5.8 mph - N/A   Clear
6:50 PM 46.4 °F 44.3 °F 42.8 °F 87% 30.27 in - East 4.6 mph - N/A   Clear
7:20 PM 44.6 °F 42.2 °F 41.0 °F 87% 30.27 in - ENE 4.6 mph - N/A   Clear
7:50 PM 44.6 °F 42.2 °F 42.8 °F 93% 30.30 in 5.6 mi East 4.6 mph - N/A   Unknown
8:20 PM 44.6 °F 43.1 °F 41.0 °F 87% 30.30 in 5.6 mi East 3.5 mph - N/A   Unknown
8:50 PM 43 °F - 40 °F 86% 30.30 in 4 mi East 6.9 mph - -   Light Haze
8:50 PM 44.6 °F 41.4 °F 41.0 °F 87% 30.30 in 5.6 mi East 5.8 mph - N/A   Unknown
9:20 PM 44.6 °F 42.2 °F 41.0 °F 87% 30.30 in 5.0 mi East 4.6 mph - N/A   Unknown
9:50 PM 44.6 °F - 42.8 °F 93% 30.30 in 4.3 mi NE 2.3 mph - N/A   Unknown
10:20 PM 44.6 °F 42.2 °F 42.8 °F 93% 30.30 in 2.8 mi ENE 4.6 mph - N/A   Haze
10:50 PM 44.6 °F 42.2 °F 42.8 °F 93% 30.27 in 2.5 mi East 4.6 mph - N/A   Haze
11:20 PM 44.6 °F - 41.0 °F 87% 30.27 in - East 2.3 mph - N/A   Haze
11:50 PM 44 °F - 43 °F 94% 30.28 in 2 mi NE 2.3 mph - -   Mist
11:50 PM 42.8 °F - 41.0 °F 93% 30.27 in 1.7 mi NNE 2.3 mph - N/A   Haze